Location: Johnson City
(36.3130°N, 82.3540°W)
Time: 14:42:08
(UTC-05:00)

OTV 5 (USA 277) - Visible Passes

Search period start: 18 November 2017 00:00
Search period end: 28 November 2017 00:00
Orbit: 404 x 417 km, 43.0° (Epoch: 07 September)

Date Brightness Start Highest point End Pass type
(mag) Time Alt. Az. Time Alt. Az. Time Alt. Az.
18 Nov ? 05:04:30 21° NE 05:04:30 21° NE 05:06:06 10° ENE visible
18 Nov ? 06:37:26 10° WNW 06:40:43 81° SSW 06:43:59 10° ESE visible
19 Nov ? 05:48:41 40° NW 05:49:39 66° NNE 05:52:55 10° ESE visible
20 Nov ? 05:00:10 24° E 05:00:10 24° E 05:01:44 10° E visible
20 Nov ? 06:32:56 11° W 06:35:47 30° SW 06:38:42 10° SSE visible
21 Nov ? 05:44:28 47° SW 05:44:48 49° SSW 05:47:59 10° SE visible
22 Nov ? 04:56:03 18° ESE 04:56:03 18° ESE 04:57:03 10° ESE visible
22 Nov ? 06:29:28 10° WSW 06:30:39 12° SW 06:31:51 10° SSW visible
23 Nov ? 05:40:29 18° SSW 05:40:29 18° SSW 05:42:09 10° S visible
